Weather History for KFDK - November, 2013

Change the Weather History Date:

Saturday, November 23, 2013

  Actual Average (KHGR) Record (KHGR)
Temperature  
Mean Temperature 42 °F 42 °F  
Max Temperature 53 °F 50 °F 68 °F (1998)
Min Temperature 30 °F 34 °F 19 °F (2000)
Degree Days  
Heating Degree Days 22 23  
Month to date heating degree days 431  
Since 1 July heating degree days 833  
Cooling Degree Days 0 0  
Month to date cooling degree days 0  
Year to date cooling degree days 969  
Moisture  
Dew Point 28 °F    
Average Humidity 61    
Maximum Humidity 87    
Minimum Humidity 42    
Precipitation  
Precipitation 0.00 in 0.11 in 0.60 in (2011)
Month to date precipitation 2.35  
Year to date precipitation 35.53  
Sea Level Pressure  
Sea Level Pressure 30.17 in    
Wind  
Wind Speed 12 mph (NW)    
Max Wind Speed 25 mph    
Max Gust Speed 33 mph    
Visibility 10 miles    
Events Snow    
T = Trace of Precipitation, MM = Missing Value Source: NWS Daily Summary

Daily Weather History Graph

Daily Weather History Graph

Search for Another Location

Airport or City:

Trip Planner

Search our weather history database for the weather conditions in past years. The results will help you decide how hot, cold, wet, or windy it might be!

Date:

Astronomy

Nov. 23, 2013 Rise Set
Actual Time 7:02 AM EST 4:49 PM EST
Civil Twilight 6:33 AM EST 5:18 PM EST
Nautical Twilight 6:00 AM EST 5:51 PM EST
Astronomical Twilight 5:28 AM EST 6:23 PM EST
Moon 10:15 PM EST (11/23) 11:18 AM EST (11/23)
Length of Visible Light 10h 45m
Length of Day
9h 46m
Waning Gibbous, 70% of the Moon is Illuminated
Nov 23
Waning Gibbous
Nov 25
Last Quarter
Dec 2
New
Dec 9
First Quarter
Dec 17
Full

Hourly Weather History & Observations

Time (EST) Temp. Windchill Dew Point Humidity Pressure Visibility Wind Dir Wind Speed Gust Speed Precip Events Conditions
12:10 AM 53.6 °F - 44.6 °F 72% 30.10 in 10.0 mi NNW 3.5 mph 17.3 mph N/A   Overcast
12:30 AM 53.6 °F - 44.6 °F 72% 30.11 in 10.0 mi NNW 13.8 mph 19.6 mph N/A   Overcast
12:50 AM 51.8 °F - 44.6 °F 76% 30.12 in 10.0 mi NNW 11.5 mph 21.9 mph N/A   Overcast
1:10 AM 50.0 °F - 42.8 °F 76% 30.13 in 10.0 mi NNW 12.7 mph 20.7 mph N/A   Overcast
1:30 AM 50.0 °F - 41.0 °F 71% 30.14 in 10.0 mi NNW 13.8 mph 17.3 mph N/A   Overcast
1:50 AM 48.2 °F - 39.2 °F 71% 30.15 in 10.0 mi NW 8.1 mph 17.3 mph N/A   Overcast
2:10 AM 48.2 °F - 35.6 °F 62% 30.15 in 10.0 mi NW 13.8 mph - N/A   Overcast
2:30 AM 46.4 °F 39.8 °F 35.6 °F 66% 30.15 in 10.0 mi WNW 16.1 mph - N/A   Mostly Cloudy
2:50 AM 44.6 °F 38.8 °F 35.6 °F 71% 30.16 in 10.0 mi WNW 11.5 mph - N/A   Scattered Clouds
3:10 AM 44.6 °F 37.4 °F 35.6 °F 71% 30.15 in 10.0 mi WNW 16.1 mph 23.0 mph N/A   Clear
3:30 AM 44.6 °F 37.2 °F 33.8 °F 66% 30.15 in 10.0 mi WNW 17.3 mph 21.9 mph N/A   Clear
3:50 AM 42.8 °F 35.4 °F 32.0 °F 66% 30.15 in 10.0 mi NW 15.0 mph 23.0 mph N/A   Clear
4:10 AM 42.8 °F 37.5 °F 32.0 °F 66% 30.17 in 10.0 mi NW 9.2 mph - N/A   Clear
4:30 AM 42.8 °F 37.0 °F 32.0 °F 66% 30.17 in 10.0 mi NW 10.4 mph - N/A   Clear
4:50 AM 41.0 °F 36.4 °F 32.0 °F 70% 30.18 in 10.0 mi NNW 6.9 mph 10.4 mph N/A   Clear
5:10 AM 41.0 °F 37.1 °F 32.0 °F 70% 30.18 in 10.0 mi NW 5.8 mph - N/A   Clear
5:30 AM 37.4 °F 32.8 °F 32.0 °F 81% 30.18 in 10.0 mi NW 5.8 mph - N/A   Clear
5:40 AM 35.6 °F - 32.0 °F 87% 30.18 in 10.0 mi Calm Calm - N/A   Clear
6:45 AM 35.6 °F 29.2 °F 28.4 °F 75% 30.20 in 10.0 mi NW 8.1 mph - N/A   Clear
7:45 AM 37.4 °F 30.3 °F 28.4 °F 70% 30.20 in - NW 10.4 mph - N/A   Clear
8:49 AM 41.0 °F 34.3 °F 28.4 °F 61% 30.21 in 10.0 mi WNW 11.5 mph - N/A   Clear
9:46 AM 41.0 °F 34.7 °F 28.4 °F 61% 30.20 in 10.0 mi WNW 10.4 mph - N/A   Clear
10:55 AM 44.6 °F 38.4 °F 28.4 °F 53% 30.18 in 10.0 mi WNW 12.7 mph 17.3 mph N/A   Unknown
11:45 AM 44.6 °F 37.2 °F 28.4 °F 53% 30.15 in 10.0 mi WNW 17.3 mph 28.8 mph N/A   Clear
12:45 PM 44.6 °F 40.2 °F 26.6 °F 49% 30.14 in 10.0 mi NW 8.1 mph 15.0 mph N/A   Mostly Cloudy
1:45 PM 44.6 °F 36.9 °F 24.8 °F 46% 30.10 in 10.0 mi WNW 18.4 mph 21.9 mph N/A   Clear
2:45 PM 44.6 °F 38.8 °F 26.6 °F 49% 30.08 in 10.0 mi NW 11.5 mph - N/A   Scattered Clouds
3:50 PM 42.8 °F 37.5 °F 24.8 °F 49% 30.09 in 10.0 mi WNW 9.2 mph 18.4 mph N/A   Clear
4:50 PM 42.8 °F 35.4 °F 21.2 °F 42% - 10.0 mi WNW 15.0 mph 20.7 mph N/A   Clear
5:47 PM 41.0 °F 32.8 °F 19.4 °F 42% 30.11 in 10.0 mi NW 16.1 mph 25.3 mph N/A   Mostly Cloudy
6:47 PM 39.2 °F 30.2 °F 19.4 °F 45% 30.13 in 10.0 mi NW 17.3 mph 25.3 mph N/A   Overcast
7:55 PM 33.8 °F 23.5 °F 28.4 °F 81% 30.16 in 10.0 mi NNW 16.1 mph 21.9 mph N/A   Overcast
8:15 PM 33.8 °F 23.2 °F 26.6 °F 75% 30.17 in 10.0 mi NW 17.3 mph 25.3 mph N/A Snow Light Snow
8:35 PM 33.8 °F 22.2 °F 23.0 °F 65% 30.18 in 10.0 mi NW 20.7 mph 29.9 mph N/A   Mostly Cloudy
8:55 PM 32.0 °F 20.5 °F 21.2 °F 64% 30.19 in 10.0 mi NW 18.4 mph 32.2 mph N/A   Scattered Clouds
9:15 PM 32.0 °F 21.6 °F 19.4 °F 60% 30.19 in 10.0 mi NW 15.0 mph 28.8 mph N/A   Scattered Clouds
9:35 PM 32.0 °F 19.8 °F 17.6 °F 55% 30.20 in 10.0 mi NW 20.7 mph 25.3 mph N/A   Clear
9:55 PM 32.0 °F 19.8 °F 14.0 °F 48% 30.20 in 10.0 mi NW 20.7 mph 29.9 mph N/A   Clear
10:15 PM 32.0 °F 18.6 °F 12.2 °F 44% 30.21 in 10.0 mi NW 25.3 mph 33.4 mph N/A   Scattered Clouds
10:35 PM 32.0 °F 19.8 °F 12.2 °F 44% 30.22 in 10.0 mi WNW 20.7 mph 26.5 mph N/A   Scattered Clouds
10:55 PM 32.0 °F 20.8 °F 14.0 °F 48% 30.23 in 10.0 mi NW 17.3 mph 20.7 mph N/A   Scattered Clouds
11:15 PM 32.0 °F 22.5 °F 15.8 °F 51% 30.24 in 10.0 mi NW 12.7 mph 18.4 mph N/A   Mostly Cloudy
11:35 PM 32.0 °F 21.2 °F 14.0 °F 48% 30.24 in 10.0 mi NW 16.1 mph - N/A   Overcast
11:55 PM 30.2 °F 17.1 °F 12.2 °F 47% 30.25 in 10.0 mi WNW 21.9 mph 31.1 mph N/A   Scattered Clouds